Regional Weather Roundup
Issued by NWS

Home | Current Version | Previous Version | Text Only | Print | Product List | Glossary Off
Versions: 1 2 3 4 5 6 7 8 9 10 11 12 13 14 15 16 17 18 19 20 21 22 23 24 25 26 27 28 29 30 31 32 33 34 35 36 37 38 39 40 41 42 43 44 45 46 47 48 49 50

000
ASUS43 KLOT 310110
RWRIL

ILLINOIS REGIONAL WEATHER ROUNDUP
NATIONAL WEATHER SERVICE CHICAGO/ROMEOVILLE IL
800 PM CDT THU OCT 30 2014

NOTE: "FAIR" INDICATES FEW OR NO CLOUDS BELOW 12,000 FEET WITH NO
SIGNIFICANT WEATHER AND/OR OBSTRUCTIONS TO VISIBILITY.

* THESE STATIONS ARE NOT UNDER NWS QUALITY CONTROL. THEY ALSO MAY NOT
  REPORT WEATHER SUCH AS PRECIPITATION OR FOG.

ILZ001-002-007-009-015-016-024-310200-
NORTHWEST ILLINOIS

CITY           SKY/WX    TMP DP  RH WIND       PRES   REMARKS
MOLINE         CLOUDY    47  38  71 S5        30.08R
STERLING*      CLOUDY    46  37  71 CALM      30.08S
SAVANNA*       CLOUDY    46  37  71 CALM      30.09R
$$

ILZ003-004-008-010-011-017-018-310200-
NORTH CENTRAL ILLINOIS

CITY           SKY/WX    TMP DP  RH WIND       PRES   REMARKS
ROCKFORD       CLOUDY    47  35  63 W3        30.08F
FREEPORT*      CLOUDY    46  36  68 W3        30.09S
ROCHELLE*      MOCLDY    44  37  79 CALM      30.08R
DE KALB*       CLOUDY    45  35  67 W5        30.07S
PERU*          MOCLDY    46  37  70 CALM      30.09S
$$

ILZ005-006-012>014-019>023-310200-
NORTHEAST ILLINOIS

CITY           SKY/WX    TMP DP  RH WIND       PRES   REMARKS
CHICAGO-OHARE  CLOUDY    48  36  63 W6        30.05F
CHICAGO-MIDWAY CLOUDY    50  36  58 W5        30.06S
AURORA         MOCLDY    45  36  70 W6        30.07S
LANSING*       CLOUDY    47  37  68 W3        30.07S
JOLIET*        CLOUDY    46  37  72 CALM      30.07S
WAUKEGAN       CLOUDY    45  34  65 CALM      30.04F
DUPAGE AIRPORT PTCLDY    47  36  65 W6        30.06S
KANKAKEE*      MOCLDY    45  39  81 NW3       30.08S
WHEELING       CLOUDY    50  35  56 W3        30.07F
MORRIS*        CLOUDY    46  38  76 W5        30.06F
ROMEOVILLE*    CLOUDY    45  37  71 W3        30.07S
NORTHERLY ISL    N/A     50  35  56 W6          N/A
$$

LMZ740>746-310200-
SOUTHERN LAKE MICHIGAN

STATION/POSITION SKY/WX   TEMP    WIND        PRES    VSBY  WAVE
                          AIR SEA DIR/SP/G                  HT/PER
                          (F)     (DEG/KT/KT) (MB)    (MI)  (FT/S)
SOUTHERN BUOY              51 53  280/ 12/ 12 1017.5F         1/ 4
WAUKEGAN HARBOR            50     280/  6/  8   N/A
HARRISON CRIB              50     250/  9/ 12   N/A
BURNHAM HARBOR             50     250/  3/  9   N/A
CALUMET HARBOR             49     220/  3/  5 1016.6F
MICHIGAN CITY              49     190/  8/ 11   N/A
$$

ILZ025>027-034>036-040-047-049-050-058-095>099-310200-
WEST-CENTRAL ILLINOIS

CITY           SKY/WX    TMP DP  RH WIND       PRES   REMARKS
QUINCY         CLOUDY    49  42  77 NE7       30.05R
GALESBURG*     CLOUDY    44  41  89 NE5       30.08S
MACOMB*        MOCLDY    45  40  83 NE6       30.09S
JACKSONVILLE*  CLOUDY    49  44  85 NE5       30.05S
PITTSFIELD*    MOCLDY    47  42  84 CALM      30.05S
$$

ILZ028>032-037-038-041>044-048-051>054-059>061-310200-
CENTRAL ILLINOIS

CITY           SKY/WX    TMP DP  RH WIND       PRES   REMARKS
PONTIAC        CLOUDY    44  41  90 N3        30.09S
BLOOMINGTON    MOCLDY    46  43  90 CALM      30.08R
DECATUR        LGT RAIN  47  44  90 NE5       30.09R
PEORIA         MOCLDY    46  43  89 CALM      30.08S FOG
LACON*         MOCLDY    42  40  93 CALM      30.08S
LINCOLN*       LGT RAIN  48  44  84 SE7       30.05F
SPRINGFIELD    CLOUDY    50  43  77 E9        30.06S
TAYLORVILLE    CLOUDY    46  43  87 NE7       30.06R
$$

ILZ033-039-045-046-055>057-062-063-310200-
EAST-CENTRAL ILLINOIS

CITY           SKY/WX    TMP DP  RH WIND       PRES   REMARKS
CHAMPAIGN      CLOUDY    47  44  90 W3        30.08R
DANVILLE*      LGT RAIN  47  42  82 CALM      30.04S
RANTOUL*       LGT RAIN  48  45  89 W3        30.08R
MATTOON        CLOUDY    48  44  86 N3        30.06R
PARIS*         FLURRIES  47  45  91 CALM      30.08R
$$

ILZ079-100>102-310200-
SOUTHWEST ILLINOIS

CITY           SKY/WX    TMP DP  RH WIND       PRES   REMARKS
ALTON          CLOUDY    50  45  81 SE6       30.03S
BELLEVILLE     CLOUDY    52  51  97 CALM      30.03S
CAHOKIA*       CLOUDY    52  49  89 SE3       30.03F
SPARTA*        CLOUDY    54  46  74 CALM      30.04R
$$

ILZ064>066-069>071-074>076-080>082-084>086-088>090-092>094-310200-
SOUTH-CENTRAL ILLINOIS

CITY           SKY/WX    TMP DP  RH WIND       PRES   REMARKS
CARBONDALE     LGT RAIN  53  46  77 CALM      30.04F
CAIRO*         CLOUDY    56  49  75 CALM      30.05S
EFFINGHAM*     LGT RAIN  49  43  79 CALM      30.06S
MARION         LGT RAIN  54  46  76 CALM      30.05S
MT. VERNON     CLOUDY    54  41  62 CALM      30.05S
CENTRALIA*     DRIZZLE   51  44  78 CALM      30.04S
SALEM*         LGT RAIN  52  48  87 E3        30.05S
METROPOLIS*    DRIZZLE   55  47  76 CALM      30.04F
$$

ILZ067-068-072-073-078-083-087-091-310200-
SOUTHEAST ILLINOIS

CITY           SKY/WX    TMP DP  RH WIND       PRES   REMARKS
LAWRENCEVILLE  LGT RAIN  51  31  46 CALM      30.06R
FLORA*         CLOUDY    51  44  77 CALM      30.06S
FAIRFIELD*     CLOUDY    52  43  70 CALM      30.04S
HARRISBURG*    LGT RAIN  54  45  73 CALM      30.06S
ROBINSON*      CLOUDY    51  46  82 CALM      30.07S
CARMI*         LGT RAIN  54  46  74 CALM      30.05S
$$

ABBREVIATIONS USED IN REMARKS
   TC - TEMPERATURE IN CELSIUS
  WCI - WIND CHILL INDEX
   HX - HEAT INDEX
  VSB - VISIBILITY
$$




USA.gov is the U.S. government's official web portal to all federal, state and local government web resources and services.